Find Starlink 2378

NORAD ID: 47916 Int'l Des: 2021-021 Owner: SPXS Country: US Constellation: starlink operational
LEOCIRCULAR

現在のビュー

3D地球を読み込み中...

About Starlink 2378

Starlink 2378 (NORAD 47916) is a starlink constellation satellite (v1.0) launched Mar 14, 2021 by SPXS of US. It operates in LEO, CIRCULAR orbit with a mass of 260.00 kg.

Starlink 2378について

説明を読み込み中...

次回通過

Passes for default location (London). Set your location on the main map for personalized predictions.

高度履歴

Loading altitude history...

軌道要素

1 47916U 21021BJ 26165.70923387 -.00001183 00000-0 -26355-4 0 9992
2 47916 53.1588 164.0870 0001477 94.0103 266.1067 15.31687764291278
Epoch: Jun 14, 2026 • Age: 9 hours

現在のステータス

高度 487.8 km
速度 7.62 km/s
衛星直下点 -47.17°S, 103.67°E
打ち上げ日 Mar 14, 2021
運用期間 5.2 years
タイプ internet

技術仕様

分類 Payload
質量 260.00 kg
乾燥質量 248.00 kg
総質量 260.00 kg
長さ 0.20 m
直径 2.80 m
スパン 9.00 m
形状 Box + pan
製造者 SPXS
バスタイプ Starlink
フェーズステータス In Orbit
所有者/国 SPXS/US

Most Searched